This is the latest recevied weather packets stored in our database for station/object YC0TBU-3. If no packets are shown the sender has not sent any weather packets the latest 10 day(s).
| Time | Temp. | Humidity | Pressure | Rain* | Wind** | Luminosity | Snow |
|---|---|---|---|---|---|---|---|
| 1777192402 | 27.78° C | 49% | 1009.8 hPa | - | - | - | - |
| 1777191675 | 27.78° C | 50% | 1009.8 hPa | - | - | - | - |
| 1777190970 | 27.78° C | 50% | 1009.3 hPa | - | - | - | - |
| 1777190265 | 27.78° C | 50% | 1011.1 hPa | - | - | - | - |
| 1777189566 | 28.33° C | 48% | 1010.3 hPa | - | - | - | - |
| 1777188839 | 27.22° C | 48% | 1009.8 hPa | - | - | - | - |
| 1777188134 | 27.78° C | 47% | 1010.4 hPa | - | - | - | - |
| 1777187429 | 27.78° C | 46% | 1009.3 hPa | - | - | - | - |
| 1777186724 | 27.22° C | 47% | 1010.8 hPa | - | - | - | - |
| 1777186024 | 27.78° C | 46% | 1010 hPa | - | - | - | - |
| 1777185298 | 27.22° C | 46% | 1009.8 hPa | - | - | - | - |
| 1777184593 | 27.22° C | 46% | 1010.2 hPa | - | - | - | - |
| 1777183888 | 27.22° C | 46% | 1011.3 hPa | - | - | - | - |
| 1777183183 | 27.22° C | 47% | 1010.7 hPa | - | - | - | - |
| 1777182478 | 27.22° C | 48% | 1011.4 hPa | - | - | - | - |
| 1777181773 | 27.22° C | 47% | 1010.1 hPa | - | - | - | - |
| 1777181068 | 27.22° C | 48% | 1012.1 hPa | - | - | - | - |
| 1777180363 | 27.22° C | 47% | 1012.1 hPa | - | - | - | - |
| 1777179663 | 27.22° C | 47% | 1011.5 hPa | - | - | - | - |
| 1777178937 | 27.22° C | 48% | 1012.4 hPa | - | - | - | - |
| 1777178232 | 27.22° C | 49% | 1012.4 hPa | - | - | - | - |
| 1777177527 | 27.22° C | 49% | 1012.9 hPa | - | - | - | - |
| 1777176822 | 27.22° C | 49% | 1011.8 hPa | - | - | - | - |
| 1777176117 | 26.67° C | 50% | 1012.6 hPa | - | - | - | - |
| 1777175412 | 27.22° C | 50% | 1012.6 hPa | - | - | - | - |
* Rain since midnight (hover to see other rain measurements)
** Current wind speed in m/s (hover to see current wind gust speed)